W2DRT Weather Reports


time (UTC)temp
F
wind
direction
speed
knots
gust
knots
rain 1hr
in
rain 24hr
in
rain mn
in
humidity
%
barometer
mb
20260506192314 66 0.0 0.0 0.00 0.00 0.00 71 1008.2
20260506191312 66 0.0 0.0 0.00 0.00 0.00 71 1008.5
20260506190311 65 0.0 0.0 0.00 0.00 0.00 70 1008.5
20260506185310 66 0.0 0.0 0.00 0.00 0.00 69 1008.5
20260506184310 66 0.0 0.0 0.00 0.00 0.00 69 1008.5
20260506183308 66 0.0 0.0 0.00 0.00 0.00 69 1008.5
20260506182306 66 0.0 0.0 0.00 0.00 0.00 68 1008.5
20260506181258 66 0.0 0.0 0.00 0.00 0.00 68 1008.5
20260506180257 66 0.0 0.0 0.00 0.00 0.00 68 1008.5
20260506175256 67 0.0 0.0 0.00 0.00 0.00 67 1008.9
20260506174251 67 0.0 0.0 0.00 0.00 0.00 66 1009.2
20260506173251 68 0.0 0.0 0.00 0.00 0.00 66 1009.2
20260506172250 70 0.0 0.0 0.00 0.00 0.00 66 1008.9
20260506171245 71 0.0 0.0 0.00 0.00 0.00 66 1009.2
20260506170245 71 0.0 0.0 0.00 0.00 0.00 67 1008.9
20260506165240 69 0.0 0.0 0.00 0.00 0.00 69 1009.2
20260506164240 67 0.0 0.0 0.00 0.00 0.00 69 1009.6
20260506163237 67 0.0 0.0 0.00 0.00 0.00 68 1009.6
20260506162232 67 0.0 0.0 0.00 0.00 0.00 67 1010.2
20260506161232 67 0.0 0.0 0.00 0.00 0.00 66 1010.6
20260506160232 67 0.0 0.0 0.00 0.00 0.00 65 1010.6
20260506155227 67 0.0 0.0 0.00 0.00 0.00 63 1010.6
20260506153334 69 0.0 0.0 0.00 0.00 0.00 60 1010.6
20260506125556 68 0.0 0.0 0.00 0.00 0.00 65 1010.6
20260506124551 68 0.0 0.0 0.00 0.00 0.00 65 1010.6
20260506123546 67 0.0 0.0 0.00 0.00 0.00 67 1010.6
20260506122541 66 0.0 0.0 0.00 0.00 0.00 67 1010.9
20260506121536 65 0.0 0.0 0.00 0.00 0.00 67 1010.6
20260506120536 65 0.0 0.0 0.00 0.00 0.00 68 1010.9
20260506115531 65 0.0 0.0 0.00 0.00 0.00 68 1010.9
20260506114526 65 0.0 0.0 0.00 0.00 0.00 69 1010.6
20260506113522 65 0.0 0.0 0.00 0.00 0.00 69 1010.9
20260506112522 64 0.0 0.0 0.00 0.00 0.00 70 1010.9
20260506111518 63 0.0 0.0 0.00 0.00 0.00 71 1010.9
20260506110512 63 0.0 0.0 0.00 0.00 0.00 71 1010.9
20260506105511 62 0.0 0.0 0.00 0.00 0.00 72 1010.6
20260506104506 62 0.0 0.0 0.00 0.00 0.00 72 1010.9
20260506103507 62 0.0 0.0 0.00 0.00 0.00 72 1010.6
20260506102502 62 0.0 0.0 0.00 0.00 0.00 72 1010.9
20260506101501 62 0.0 0.0 0.00 0.00 0.00 72 1010.9
20260506100457 62 0.0 0.0 0.00 0.00 0.00 72 1010.9
20260506095453 62 0.0 0.0 0.00 0.00 0.00 72 1010.6
20260506094453 62 0.0 0.0 0.00 0.00 0.00 72 1010.6
20260506093448 62 0.0 0.0 0.00 0.00 0.00 72 1010.6
20260506092443 62 0.0 0.0 0.00 0.00 0.00 72 1010.6
20260506091438 62 0.0 0.0 0.00 0.00 0.00 72 1010.6
20260506090439 62 0.0 0.0 0.00 0.00 0.00 72 1010.6
20260506085438 62 0.0 0.0 0.00 0.00 0.00 72 1010.9
20260506084437 62 0.0 0.0 0.00 0.00 0.00 71 1010.9
20260506083436 63 0.0 0.0 0.00 0.00 0.00 71 1011.2
20260506082436 63 0.0 0.0 0.00 0.00 0.00 71 1010.9
20260506081436 63 0.0 0.0 0.00 0.00 0.00 71 1010.9
20260506080436 63 0.0 0.0 0.00 0.00 0.00 71 1010.9
20260506073425 64 0.0 0.0 0.00 0.00 0.00 70 1010.9
20260506072426 64 0.0 0.0 0.00 0.00 0.00 70 1010.9
20260506071421 64 0.0 0.0 0.00 0.00 0.00 68 1010.9
20260506070420 64 0.0 0.0 0.00 0.00 0.00 68 1010.9
20260506062404 65 0.0 0.0 0.00 0.00 0.00 66 1010.9
20260506061402 65 0.0 0.0 0.00 0.00 0.00 66 1011.2
20260506060358 65 0.0 0.0 0.00 0.00 0.00 65 1010.9
20260506051354 66 0.0 0.0 0.00 0.00 0.00 62 1011.2
20260506050348 66 0.0 0.0 0.00 0.00 0.00 62 1011.9
20260506044348 66 0.0 0.0 0.00 0.00 0.00 60 1011.6
20260506043348 66 0.0 0.0 0.00 0.00 0.00 59 1011.6
20260506042345 67 0.0 0.0 0.00 0.00 0.00 58 1011.6
20260506041340 67 0.0 0.0 0.00 0.00 0.00 58 1011.6
20260506040340 67 0.0 0.0 0.00 0.00 0.00 57 1011.9
20260506035340 67 0.0 0.0 0.00 0.00 0.00 57 1011.2
20260506034340 67 0.0 0.0 0.00 0.00 0.00 55 1011.6
20260506033339 68 0.0 0.0 0.00 0.00 0.00 55 1011.6
20260506032339 68 0.0 0.0 0.00 0.00 0.00 54 1011.6
20260506031339 68 0.0 0.0 0.00 0.00 0.00 53 1011.2
20260506030334 68 0.0 0.0 0.00 0.00 0.00 52 1011.2
20260506025333 68 0.0 0.0 0.00 0.00 0.00 52 1011.6
20260506024332 68 0.0 0.0 0.00 0.00 0.00 51 1011.6
20260506023331 68 0.0 0.0 0.00 0.00 0.00 50 1011.6
20260506022331 69 0.0 0.0 0.00 0.00 0.00 50 1011.6
20260506021326 69 0.0 0.0 0.00 0.00 0.00 49 1011.6
20260506020326 69 0.0 0.0 0.00 0.00 0.00 49 1011.9
20260506015321 69 0.0 0.0 0.00 0.00 0.00 49 1011.2
20260506014320 69 0.0 0.0 0.00 0.00 0.00 48 1011.2
20260506013320 70 0.0 0.0 0.00 0.00 0.00 48 1011.2
20260506012320 70 0.0 0.0 0.00 0.00 0.00 47 1011.2
20260506011319 70 0.0 0.0 0.00 0.00 0.00 46 1010.9
20260506010315 71 0.0 0.0 0.00 0.00 0.00 44 1010.9
20260506005314 72 0.0 0.0 0.00 0.00 0.00 43 1010.9
20260506004313 72 0.0 0.0 0.00 0.00 0.00 42 1010.9
20260506003312 73 0.0 0.0 0.00 0.00 0.00 40 1010.6
20260506002310 73 0.0 0.0 0.00 0.00 0.00 39 1010.6
20260506001309 74 0.0 0.0 0.00 0.00 0.00 37 1010.6
20260506000310 75 0.0 0.0 0.00 0.00 0.00 35 1010.6
20260505235305 75 0.0 0.0 0.00 0.00 0.00 34 1010.2
20260505234304 76 0.0 0.0 0.00 0.00 0.00 33 1010.2
20260505233259 77 0.0 0.0 0.00 0.00 0.00 32 1009.9
20260505232253 78 0.0 0.0 0.00 0.00 0.00 31 1009.9
20260505231248 78 0.0 0.0 0.00 0.00 0.00 29 1009.9
20260505230248 80 0.0 0.0 0.00 0.00 0.00 29 1009.9
20260505225248 81 0.0 0.0 0.00 0.00 0.00 28 1009.6
20260505224247 82 0.0 0.0 0.00 0.00 0.00 27 1009.6
20260505223247 82 0.0 0.0 0.00 0.00 0.00 24 1009.2
20260505222245 83 0.0 0.0 0.00 0.00 0.00 23 1009.2
20260505221245 85 0.0 0.0 0.00 0.00 0.00 21 1009.6
20260505220245 86 0.0 0.0 0.00 0.00 0.00 18 1009.2
20260505215240 88 0.0 0.0 0.00 0.00 0.00 14 1009.2
20260505214235 91 0.0 0.0 0.00 0.00 0.00 14 1009.2
20260505213236 93 0.0 0.0 0.00 0.00 0.00 12 1009.2
20260505212235 93 0.0 0.0 0.00 0.00 0.00 12 1009.2
20260505211235 92 0.0 0.0 0.00 0.00 0.00 12 1008.9
20260505210234 93 0.0 0.0 0.00 0.00 0.00 19 1008.9
20260505205230 93 0.0 0.0 0.00 0.00 0.00 22 1008.9
20260505204230 92 0.0 0.0 0.00 0.00 0.00 26 1008.9
20260505203229 88 0.0 0.0 0.00 0.00 0.00 28 1008.5
20260505202227 85 0.0 0.0 0.00 0.00 0.00 30 1008.9
20260505201227 85 0.0 0.0 0.00 0.00 0.00 29 1008.9
20260505200228 85 0.0 0.0 0.00 0.00 0.00 30 1008.9
20260505195227 85 0.0 0.0 0.00 0.00 0.00 29 1008.9
20260505194226 85 0.0 0.0 0.00 0.00 0.00 30 1008.9
20260505193225 85 0.0 0.0 0.00 0.00 0.00 29 1009.2